Location: Ponte Samoggia
(44.5667°N, 11.1333°E)
Time: 16:28:32
(UTC+00:00)

EO 1 Del DPAF - Pass Details

Date: 26 May 2022
Orbit: 460 x 464 km, 98.0° (Epoch: 06 July)

Event Time Altitude Azimuth Distance (km) Brightness Sun altitude
Rises 00:31:09 0° 34° (NE) 2,539 8.1 -21.9°
Reaches altitude 10° 00:34:14 10° 64° (ENE) 1,649 6.4 -21.7°
Enters shadow 00:37:02 11° 112° (ESE) 1,561 5.6 -21.6°
Exits shadow 01:11:45 -68° 192° (SSW) 12,330 10.1 -18.9°
Maximum altitude 02:09:11 42° 288° (WNW) 691 3.6 -12.9°
